This demonstration page uses our WeatherBlox Daily Observations layout. Learn more.

Left ArrowRight Arrow

Hourly Observations for August 9, 2022

Temp ( °F °C ) Dew Point ( °F °C ) Humidity (%) Winds ( mph kmh ) Pressure ( in mb ) Visibility ( mi km ) Precip ( " mm )
12:51 am 00:51 Partly Cloudy 85 29.4 72 22.2 65 65 SW 12 19 29.91 1013 10 16 0.00 0.00
1:51 am 01:51 Mostly Cloudy 84 28.9 73 22.8 70 70 SW 10 17 29.90 1013 10 16 0.00 0.00
2:51 am 02:51 Partly Cloudy 83 28.3 73 22.8 72 72 SW 12 19 29.88 1012 10 16 0.00 0.00
3:51 am 03:51 Cloudy 83 28.3 73 22.8 72 72 SW 12 19 29.88 1012 10 16 0.00 0.00
4:51 am 04:51 Mostly Cloudy 82 27.8 74 23.3 77 77 SW 14 22 29.88 1012 10 16 0.00 0.00
5:51 am 05:51 Partly Cloudy 82 27.8 74 23.3 77 77 SW 9 15 29.89 1012 10 16 0.00 0.00
6:51 am 06:51 Partly Cloudy 82 27.8 74 23.3 77 77 SSW 8 13 29.89 1012 10 16 0.00 0.00
7:51 am 07:51 Mostly Sunny 84 28.9 73 22.8 70 70 SW 10 17 29.91 1013 10 16 0.00 0.00
8:51 am 08:51 Sunny 86 30 73 22.8 65 65 W 9 15 29.91 1013 10 16 0.00 0.00
9:51 am 09:51 Sunny 89 31.7 73 22.8 59 59 W 10 17 29.90 1012 10 16 0.00 0.00
10:51 am 10:51 Sunny 91 32.8 72 22.2 54 54 W 13 20 29.90 1013 10 16 0.00 0.00
11:51 am 11:51 Sunny 94 34.4 71 21.7 48 48 W 14 22 29.88 1012 10 16 0.00 0.00
12:51 pm 12:51 Mostly Sunny 96 35.6 71 21.7 45 45 W 12 19 29.88 1012 10 16 0.00 0.00
1:51 pm 13:51 Partly Cloudy 97 36.1 71 21.7 43 43 SW 18 30 29.86 1011 10 16 0.00 0.00
2:51 pm 14:51 Partly Cloudy 94 34.4 72 22.2 49 49 WSW 13 20 29.86 1011 10 16 0.00 0.00
3:51 pm 15:51 Mostly Sunny 97 36.1 71 21.7 43 43 NW 13 20 29.85 1011 10 16 0.00 0.00
4:51 pm 16:51 Mostly Sunny 96 35.6 71 21.7 45 45 NNW 12 19 29.85 1011 10 16 0.00 0.00
5:51 pm 17:51 Mostly Cloudy 95 35 71 21.7 46 46 W 8 13 29.85 1011 10 16 0.00 0.00
6:22 pm 18:22 Partly Cloudy with Nearby Thunderstorms 92 33.3 71 21.7 51 51 NW 8 13 29.86 1011 10 16 0.00 0.00
6:42 pm 18:42 Mostly Cloudy with Strong Thunderstorms 84 28.9 70 21.1 63 63 WSW 29 46 29.91 1013 2 3 0.01 0.13
6:49 pm 18:49 Mostly Cloudy with Strong Thunderstorms 82 28 72 22 70 70 SSE 16 26 29.89 1012 1 1 0.09 2.29
6:51 pm 18:51 Mostly Cloudy with Strong Thunderstorms 81 27.2 72 22.2 74 74 WSW 8 13 29.89 1012 1 2 0.11 2.79
7:03 pm 19:03 Cloudy with Rain 84 28.9 73 22.8 70 70 ESE 7 11 29.88 1012 5 8 0.07 1.78
7:13 pm 19:13 Mostly Cloudy with Nearby Thunderstorms 81 27.2 74 23.3 79 79 Calm 29.88 1012 10 16 0.07 1.78
7:27 pm 19:27 Mostly Sunny 82 27.8 75 23.9 79 79 S 5 7 29.89 1012 10 16 0.07 1.78
7:51 pm 19:51 Mostly Cloudy 81 27.2 75 23.9 82 82 VRB 3 6 29.90 1013 10 16 0.07 1.78
8:51 pm 20:51 Clear 82 27.8 74 23.3 77 77 WNW 5 7 29.91 1013 10 16 0.00 0.00
10:58 pm 22:58 Mostly Cloudy 82 28 75 24 79 79 N 3 6 29.95 1014 10 16 0.00 0.00

Powered by AerisWeather